Вернуться в каталог

CZ-6A DEB

АктивенSSO
NORAD 55544·DEBRIS·🇨🇳 China

Запущен Nov 11, 2022 с Taiyuan Satellite Launch Center

Loading…

Ближайшие Пролёты (ближайшие 24 часа)

TLE

СвежийSource: Space-Track

Эпоха: Sep 14, 2026, 11:49 UTC

1 55544U 22151YS  26257.49257963  .00000792  00000-0  48086-3 0  9998
2 55544  98.9570 264.2364 0079438 126.5018 234.3502 14.07605350191397

Отслеживайте CZ-6A DEB в реальном времени с AllMySat

Download on the App Store